84P/Giclas 

Epoch 1999 Aug. 10.0 TT = JDT 2451400.5  

T 1999 Aug. 25.12959 TT                                 Nakano

q   1.8458481            (2000.0)            P               Q

n   0.14161344     Peri.  276.41667     +0.86800175     -0.48255486

a   3.6452983      Node   112.49022     +0.49078742     +0.79785157

e   0.4936359      Incl.    7.28157     +0.07550286     +0.36134980

P   6.96

From 214 observations 1931-1999, mean residual 0".85.  Nongravitational

   parameters A1 = +0.03 +/- 0.03, A2 = -0.0009 +/- 0.0002.

Residuals in seconds of arc 

1931/                     851210 323  0.8+  0.1-    1993/                   

310912 690  0.5+  0.1+    851214 688 (2.7+  1.3+)   930101 691  0.8-  0.6+  

310916 690  0.6-  1.9+    851214 688  1.6+  0.3-    930101 691  0.9-  0.5+  

310921 690  0.8-  0.5+    851215 688 (2.6+  1.5-)   930101 691  0.6-  0.4+  

1978/                     851215 801  0.2+  1.3+    930112 411 (2.6+  1.4+) 

780903 688 (0.1-  5.7-)   1986/                     930112 411  1.7+  0.0   

780908 688 (0.7+  3.1-)Y  860108 688  1.9+  0.1-    930112 411  0.2+  0.3-  

780910 688 (2.1+  2.4-)   860109 801  1.1+  0.9+    930119 801  0.1+  1.2+  

780911 688  0.4-  0.8-    860119 691  0.2+  0.0     930119 801  0.4+  0.8+  

780912 688  1.4+  1.4-    860119 691  0.4+  0.2-    930121 360  1.1+  0.1+  

780913 323  0.5+  0.5+    860119 691  0.5+  0.1-    930121 360  0.9+  0.9+  

780913 323 (2.3+  0.5-)   1992/                     930125 691  0.4-  0.0   

780914 801 (3.5+  0.0 )   920630 372(12.1-  4.6-)   930125 691  0.6-  0.1+  

780916 372 (1.4-  2.8+)   920707 372 (6.9-  2.4-)   930125 691  0.1-  0.3+  

780916 323  0.9+  1.0-    920707 372 (6.7-  4.0-)   930126 801  0.7-  0.9+  

780916 323  0.3-  0.4-    920709 372 (2.9-  2.5-)   930126 801  1.3+  0.8+  

780921 323  1.1+  1.1-    920709 372 (3.1-  4.2-)   930320 360  2.0+  1.4-  

780922 323 (0.3+  2.9+)   920728 801 (4.4-  1.0-)   930320 360 (4.2+  1.6+) 

780923 688  1.7-  1.4-    920728 801 (3.5-  1.5-)   1999/                   

780924 805  0.5+  0.3+    920802 801 (2.8-  1.5-)   990912 360  0.4-  0.1+  

780924 323  0.1+  0.0     920802 801 (3.6-  2.8-)   990912 360  0.7-  0.1-  

780924 210  1.8-  1.7+    920824 801 (2.8-  1.8-)   990913 143 (4.2-  0.3-) 

780924 210  1.1+  2.1+    920824 801 (3.1-  2.1-)   990913 143 (4.3-  0.1-) 

780924 046  0.8+  1.7-    920925 801  1.2-  1.8-    990913 143  1.5-  0.2+  

780924 046  1.1-  2.0-    920925 801  1.0-  0.5+    990914 557  1.1-  0.0   

780925 323  2.1+  0.9+    920925 360  0.3-  1.3-    990914 557  1.1-  0.1-  

780925 046  1.4-  0.3-    920925 360  0.5-  1.2-    990914 557  1.0-  0.1-  

780925 046  0.6-  0.0     920928 691  2.1-  1.3-    991003 360  0.9+  0.2+  

780926 801  0.5-  0.2+    920928 691 (2.6-  1.1-)   991003 360  0.3-  0.0   

780927 688  0.3+  1.9-    920928 691 (2.5-  1.2-)   991005 903  0.1-  0.1-  

780927 805  1.2+  1.1+    920930 801  0.6-  1.1-    991005 903  1.4-  0.9-  

780929 805  0.8+  1.3+    920930 801 (0.8-  2.4-)   991005 903  1.5-  0.8-  

780930 688  1.2+  0.0     921024 801  1.3-  0.2-    991010 704  1.0-  0.3+  

780930 372  1.0-  0.2-    921024 801  1.4-  0.2-    991010 704  0.5-  0.4+  

780930 372 (0.5-  3.0+)   921028 801  1.2-  0.4-    991010 704  1.0-  0.0   

781002 885  0.9+  0.9+    921028 801  1.3-  0.5-    991010 704  1.2-  0.0   

781003 323  0.2+  0.4-    921030 897  1.8-  0.8-    991018 629  1.6-  0.3+  

781007 805  0.5+  1.0-    921030 897 (2.7-  0.5+)   991018 867  0.3+  0.2+  

781007 688 (0.8+  2.7-)   921102 360  0.9-  0.6-    991018 867  0.3+  0.4+  

781008 805  2.1+  0.3-    921102 360  1.0-  0.9-    991018 867  0.2+  0.1+  

781008 885  0.5-  1.0+    921119 675 (6.6+  4.6-)   991020 704  0.2-  0.2-  

781008 046  0.7-  0.5+    921119 675 (4.7+  4.0-)   991020 704  0.2+  0.1+  

781008 046  0.3-  0.4+    921120 657  0.1+  1.5-    991020 704  0.8+  0.8-  

781009 805  0.1-  0.9-    921120 657  0.4+  1.6-    991020 704  1.2+  0.8+  

781009 805  0.6+  1.2+    921120 657  1.2+  1.5-    991020 360  0.8+  0.1+  

781009 046 (2.3-  0.4-)   921121 411  0.0   1.2-    991020 360  0.6+  0.2-  

781009 046  2.0-  0.3-    921121 411  0.2-  0.5-    991020 402  0.4+  0.2+  

781010 675  0.3+  1.8+    921121 411  0.0   0.4+    991020 402  0.1+  0.1+  

781010 688 (1.8+  3.2-)   921122 411  0.7-  0.7-    991020 402  0.4+  0.2+  

781023 372  0.8+  0.6+    921122 411  0.3-  0.2+    991023 402  0.8+  0.3+  

781023 372 (0.3-  3.3-)   921122 411  0.1+  0.9-    991023 402  0.9+  0.5+  

781023 323  0.5+  0.5+    921123 897  0.4-  0.1-    991023 897  0.4-  0.3-  

781027 323  0.3-  0.5-    921123 411  0.5-  0.6-    991023 897  0.4-  0.1-  

781028 688 (2.2+  3.2-)   921123 897  0.4-  0.2-    991024 897  0.8+  0.2-  

781101 801  0.9-  0.1-    921123 411  0.9-  0.3-    991024 897  0.7+  0.1-  

781104 805  0.1-  0.6+    921124 360  0.0   0.7-    991104 704 (3.0+  1.2-) 

781105 323  0.9-  0.6+    921124 360  0.1-  0.7-    991104 704  0.4+  0.5-  

781120 801  1.0-  0.9-    921125 657  0.2-  0.5-    991104 704  1.9-  1.0+  

781120 688 (1.3+  2.7-)   921125 657  0.3+  0.9-    991104 360  1.0+  0.1+  

781120 323 (2.7-  0.2+)   921125 657  0.2+  1.0-    991104 360  0.8+  0.3+  

781220 323 (4.3-  0.4-)   921126 411  0.4-  0.7-    991105 352  0.4-  0.4+  

781227 688 (0.2+  4.9-)   921126 411  0.3-  0.3-    991105 352  1.9-  0.5-  

781227 474 (2.4-  0.0 )   921126 411  0.1-  0.3-    991108 349  1.0+  0.0   

781227 474  0.0   1.7+    921129 801 (0.3-  4.1-)   991108 349  1.0-  0.0   

781229 323  0.7+  1.5+    921129 801 (0.4-  4.1-)   991108 349  1.2-  0.3-  

1979/                     921130 360  0.2+  0.5-    991110 360  1.0+  0.2+  

790124 688 (0.1+  5.0-)   921130 360  0.0   0.6-    991110 360  1.0+  0.5+  

790223 801  1.3-  0.6+    921130 589  0.4+  0.7+    991112 695  0.9+  0.3+  

790328 801 (1.1-  2.8+)   921130 589  0.0   0.1+    991112 695  1.0+  0.3+  

1985/                     921201 691  1.3-  0.4-    991112 695  0.9+  0.3+  

850622 707 (5.1-  6.3-)   921201 691  0.7-  0.1-    991113 474  0.5-  1.4+  

850718 801 (1.8-  5.0+)   921201 691  1.1+  0.1-    991113 474 (1.1-  2.7+) 

850721 801 (3.7-  1.6-)   921204 411  1.0-  0.4+    991113 474 (1.3-  2.5+) 

850722 372 (1.6-  2.3-)   921204 411  0.4+  1.3-    991113 402  1.0+  0.3+  

850722 372 (6.3-  4.0-)   921204 411  0.3-  0.3-    991113 402  0.9+  0.2+  

850810 662  1.9-  1.5-    921217 360  0.1+  0.2+    991113 355  0.2-  0.3+  

850811 662 (2.7-  1.1-)   921219 411  0.5-  0.7+    991113 355  0.2+  0.6+  

850912 801  0.5+  1.6-    921219 411  0.2-  1.4-    991113 355  0.0   0.4+  

850914 707  0.7-  0.3-    921219 411  0.6-  0.1+    991116 360  1.0+  0.3+  

850917 801  0.2-  1.5-    921221 801  0.0   0.8+    991116 360  1.1+  0.4+  

851016 801  0.3+  1.3-    921221 801  0.1-  0.9+    991130 360  1.4+  0.4+  

851018 552  1.0+  1.4-    921222 897 (7.8+  6.9-)   991130 360  1.3+  0.3+  

851018 552  0.3+  0.8-    921222 411  1.2-  0.8+    991203 808  0.2+  0.9+  

851020 707  0.7+  1.3+    921222 411  0.4-  0.5+    991203 808  0.1+  0.0   

851109 801  2.0+  0.9-    921222 411  1.4+  0.7+    991203 355  0.4+  0.8+  

851109 293  0.7-  1.8-    921222 897 (4.1+  3.3+)   991203 355  0.0   0.8+  

851109 293 (3.9-  3.5-)   921223 801  0.4+  1.3+    991203 355  0.2+  0.6+  

851113 657 (3.9-  5.1+)   921225 360  0.8+  0.1+    991206 704  1.2+  0.3-  

851119 323 (4.5+  0.2+)   921225 360  0.6+  0.3-    991206 704  0.1-  0.2-  

851202 323 (3.1+  2.8-)   921226 107  1.1+  1.4+    991206 704  0.3-  0.6+  

851205 323  1.0-  0.5+    921226 107 (2.3+  0.6-)   991206 704  0.4-  0.6+  

851205 046  1.6-  0.3+    921227 107  1.1+  0.6+    991206 704 (3.5-  1.3+) 

851205 046  0.1+  0.7-    921228 107  0.5+  1.1+    991206 587  0.5+  0.0   

851206 323  0.1+  1.3+    921228 107  1.3+  1.5+    991206 587  0.3+  0.0   

851209 657  1.5+  0.4-    921229 107  1.1+  1.9+    



NAKANO

         **** Don't distribute anyone except personal use only ****

                (C) Copyright 1999 OAA/ComputingSection

write mail from CFAD0::NAKANO on 1999-12-16 02:37:47(JST).

 







–ß‚è‚Ü‚·B